UAL234 KEWR-KDTW

Flight info

Callsign UAL234
Flight time 1h 24m
Altitude 40000
Route GAYEL J95 CFB TRAAD JACCI FERRL2
Aircraft B772/H-SDE2E3FGHIJ5LORVWXY/LB1D1

Departure

Time 2026-05-04 23:21
Airport Newark Liberty International Airport (KEWR)

Arrival

Time 2026-05-05 00:46
Airport Detroit Metropolitan Wayne County Airport (KDTW)
Time Latitude Longitude Altitude Speed Heading
2026-05-04 23:08 40.69404 -74.17360 26 ft 0 kts 13°
2026-05-04 23:08 40.69400 -74.17362 26 ft 16 kts 13°
2026-05-04 23:09 40.69404 -74.17360 26 ft 0 kts 13°
2026-05-04 23:13 40.69398 -74.17362 26 ft 2 kts 13°
2026-05-04 23:14 40.69379 -74.17368 26 ft 3 kts 12°
2026-05-04 23:14 40.69362 -74.17371 26 ft 3 kts 333°
2026-05-04 23:14 40.69353 -74.17363 25 ft 2 kts 313°
2026-05-04 23:14 40.69341 -74.17349 25 ft 3 kts 346°
2026-05-04 23:15 40.69332 -74.17346 23 ft 3 kts 62°
2026-05-04 23:15 40.69329 -74.17361 24 ft 1 kts 103°
2026-05-04 23:15 40.69333 -74.17379 25 ft 3 kts 103°
2026-05-04 23:15 40.69336 -74.17399 26 ft 1 kts 103°
2026-05-04 23:16 40.69336 -74.17400 26 ft 0 kts 103°
2026-05-04 23:17 40.69317 -74.17331 23 ft 15 kts 116°
2026-05-04 23:17 40.69281 -74.17247 26 ft 10 kts 122°
2026-05-04 23:17 40.69245 -74.17165 26 ft 10 kts 116°
2026-05-04 23:18 40.69217 -74.17080 26 ft 10 kts 98°
2026-05-04 23:18 40.69260 -74.17011 30 ft 10 kts 26°
2026-05-04 23:18 40.69325 -74.16969 26 ft 10 kts 26°
2026-05-04 23:18 40.69402 -74.16920 27 ft 14 kts 26°
2026-05-04 23:19 40.69490 -74.16864 27 ft 14 kts 26°
2026-05-04 23:19 40.69577 -74.16809 27 ft 14 kts 26°
2026-05-04 23:19 40.69664 -74.16754 26 ft 14 kts 26°
2026-05-04 23:19 40.69751 -74.16698 29 ft 14 kts 26°
2026-05-04 23:20 40.69838 -74.16643 27 ft 14 kts 26°
2026-05-04 23:20 40.69924 -74.16588 30 ft 14 kts 25°
2026-05-04 23:20 40.70012 -74.16533 29 ft 14 kts 25°
2026-05-04 23:20 40.70062 -74.16443 27 ft 13 kts 89°
2026-05-04 23:21 40.70006 -74.16382 27 ft 12 kts 192°
2026-05-04 23:21 40.69809 -74.16502 29 ft 63 kts 206°
2026-05-04 23:21 40.69072 -74.16969 97 ft 165 kts 207°
2026-05-04 23:21 40.67889 -74.17729 931 ft 202 kts 206°
2026-05-04 23:22 40.66650 -74.18482 1797 ft 195 kts 196°
2026-05-04 23:22 40.65230 -74.18640 2384 ft 215 kts 192°
2026-05-04 23:22 40.63777 -74.19442 2526 ft 237 kts 220°
2026-05-04 23:22 40.62869 -74.21237 3221 ft 244 kts 252°
2026-05-04 23:23 40.62825 -74.23484 4332 ft 252 kts 281°
2026-05-04 23:23 40.63632 -74.25519 5501 ft 259 kts 309°
2026-05-04 23:23 40.65102 -74.26885 6686 ft 263 kts 331°
2026-05-04 23:23 40.66822 -74.27786 7704 ft 268 kts 336°
2026-05-04 23:24 40.68588 -74.28602 8778 ft 269 kts 337°
2026-05-04 23:24 40.70373 -74.29411 9642 ft 273 kts 337°
2026-05-04 23:24 40.72178 -74.30225 10222 ft 276 kts 337°
2026-05-04 23:24 40.74082 -74.31083 10590 ft 304 kts 337°
2026-05-04 23:25 40.76154 -74.32018 11162 ft 321 kts 337°
2026-05-04 23:25 40.78299 -74.32979 12041 ft 330 kts 337°
2026-05-04 23:25 40.80490 -74.33942 13041 ft 335 kts 337°
2026-05-04 23:25 40.82724 -74.34901 14024 ft 339 kts 337°
2026-05-04 23:26 40.84985 -74.35860 14929 ft 344 kts 337°
2026-05-04 23:26 40.87241 -74.36816 15827 ft 348 kts 338°
2026-05-04 23:26 40.89563 -74.37778 16668 ft 353 kts 340°
2026-05-04 23:26 40.91992 -74.38419 17036 ft 360 kts 348°
2026-05-04 23:27 40.94519 -74.38673 17004 ft 367 kts 354°
2026-05-04 23:27 40.97075 -74.38574 17002 ft 368 kts 358°
2026-05-04 23:27 40.99646 -74.38400 17318 ft 372 kts 358°
2026-05-04 23:27 41.02231 -74.38211 18251 ft 374 kts 358°
2026-05-04 23:28 41.04833 -74.38023 19124 ft 374 kts 358°
2026-05-04 23:28 41.07433 -74.37842 19959 ft 375 kts 358°
2026-05-04 23:28 41.10017 -74.37670 20697 ft 379 kts 358°
2026-05-04 23:28 41.12664 -74.37498 21436 ft 383 kts 358°
2026-05-04 23:29 41.15338 -74.37326 22161 ft 386 kts 358°
2026-05-04 23:29 41.18039 -74.37154 22862 ft 390 kts 358°
2026-05-04 23:29 41.20762 -74.36981 23599 ft 393 kts 358°
2026-05-04 23:29 41.23497 -74.36807 24207 ft 396 kts 358°
2026-05-04 23:30 41.26260 -74.36629 24756 ft 399 kts 358°
2026-05-04 23:30 41.29035 -74.36450 24859 ft 400 kts 358°
2026-05-04 23:30 41.31809 -74.36270 24858 ft 400 kts 358°
2026-05-04 23:30 41.34589 -74.36092 24875 ft 399 kts 358°
2026-05-04 23:31 41.37278 -74.36368 24856 ft 392 kts 340°
2026-05-04 23:31 41.39688 -74.37947 24863 ft 386 kts 321°
2026-05-04 23:31 41.41682 -74.40332 24862 ft 385 kts 310°
2026-05-04 23:31 41.43230 -74.43216 24854 ft 381 kts 301°
2026-05-04 23:32 41.44581 -74.46261 24852 ft 382 kts 299°
2026-05-04 23:32 41.45889 -74.49330 24854 ft 381 kts 299°
2026-05-04 23:32 41.47194 -74.52413 24858 ft 381 kts 299°
2026-05-04 23:32 41.48498 -74.55482 24859 ft 380 kts 299°
2026-05-04 23:33 41.49807 -74.58541 24856 ft 380 kts 299°
2026-05-04 23:33 41.51124 -74.61597 24851 ft 379 kts 300°
2026-05-04 23:33 41.52425 -74.64604 24861 ft 379 kts 300°
2026-05-04 23:33 41.53744 -74.67646 24855 ft 379 kts 300°
2026-05-04 23:34 41.55062 -74.70683 24851 ft 378 kts 300°
2026-05-04 23:34 41.56382 -74.73725 24877 ft 380 kts 300°
2026-05-04 23:34 41.57716 -74.76799 25357 ft 385 kts 300°
2026-05-04 23:34 41.59060 -74.79900 26009 ft 386 kts 300°
2026-05-04 23:35 41.60407 -74.83010 26669 ft 388 kts 300°
2026-05-04 23:35 41.61760 -74.86139 27298 ft 390 kts 300°
2026-05-04 23:35 41.63123 -74.89294 27874 ft 394 kts 300°
2026-05-04 23:35 41.64502 -74.92488 28375 ft 399 kts 300°
2026-05-04 23:36 41.65897 -74.95722 28909 ft 404 kts 300°
2026-05-04 23:36 41.67287 -74.98949 29452 ft 407 kts 300°
2026-05-04 23:36 41.68661 -75.02142 29976 ft 411 kts 300°
2026-05-04 23:36 41.70088 -75.05463 30478 ft 413 kts 300°
2026-05-04 23:37 41.71525 -75.08809 30956 ft 416 kts 300°
2026-05-04 23:37 41.72968 -75.12173 31417 ft 418 kts 300°
2026-05-04 23:37 41.74420 -75.15562 31840 ft 421 kts 300°
2026-05-04 23:37 41.75882 -75.18979 32253 ft 424 kts 300°
2026-05-04 23:38 41.77351 -75.22415 32634 ft 427 kts 301°
2026-05-04 23:38 41.78829 -75.25879 33040 ft 429 kts 301°
2026-05-04 23:38 41.80311 -75.29356 33415 ft 431 kts 301°
2026-05-04 23:38 41.81778 -75.32800 33839 ft 431 kts 301°
2026-05-04 23:39 41.83263 -75.36291 34246 ft 430 kts 301°
2026-05-04 23:39 41.84742 -75.39774 34633 ft 430 kts 301°
2026-05-04 23:39 41.86221 -75.43258 35012 ft 430 kts 300°
2026-05-04 23:39 41.87698 -75.46743 35421 ft 429 kts 300°
2026-05-04 23:40 41.89173 -75.50228 35821 ft 429 kts 300°
2026-05-04 23:40 41.90643 -75.53704 36208 ft 429 kts 299°
2026-05-04 23:40 41.92114 -75.57188 36581 ft 428 kts 299°
2026-05-04 23:40 41.93582 -75.60666 36957 ft 428 kts 299°
2026-05-04 23:41 41.95048 -75.64144 37313 ft 428 kts 298°
2026-05-04 23:41 41.96511 -75.67622 37677 ft 427 kts 298°
2026-05-04 23:41 41.97972 -75.71096 38048 ft 427 kts 298°
2026-05-04 23:41 41.99431 -75.74572 38387 ft 427 kts 298°
2026-05-04 23:42 42.00867 -75.77994 38650 ft 427 kts 298°
2026-05-04 23:42 42.02322 -75.81469 38950 ft 425 kts 298°
2026-05-04 23:42 42.03772 -75.84933 39188 ft 426 kts 298°
2026-05-04 23:42 42.05224 -75.88408 39372 ft 427 kts 298°
2026-05-04 23:43 42.06682 -75.91902 39577 ft 428 kts 297°
2026-05-04 23:43 42.08141 -75.95401 39700 ft 431 kts 297°
2026-05-04 23:43 42.11038 -76.02361 39780 ft 435 kts 297°
2026-05-04 23:44 42.13896 -76.09472 39770 ft 427 kts 292°
2026-05-04 23:44 42.15741 -76.16975 39774 ft 425 kts 283°
2026-05-04 23:45 42.16657 -76.24825 39790 ft 424 kts 276°
2026-05-04 23:45 42.17229 -76.32743 39788 ft 425 kts 276°
2026-05-04 23:46 42.17795 -76.40686 39763 ft 426 kts 276°
2026-05-04 23:46 42.18379 -76.48580 39761 ft 426 kts 276°
2026-05-04 23:47 42.18973 -76.56538 39773 ft 427 kts 276°
2026-05-04 23:47 42.19566 -76.64508 39768 ft 427 kts 276°
2026-05-04 23:48 42.20154 -76.72490 39760 ft 428 kts 276°
2026-05-04 23:48 42.20736 -76.80486 39741 ft 429 kts 276°
2026-05-04 23:49 42.21309 -76.88433 39758 ft 428 kts 276°
2026-05-04 23:49 42.21880 -76.96434 39746 ft 428 kts 276°
2026-05-04 23:50 42.22436 -77.04288 39744 ft 428 kts 276°
2026-05-04 23:50 42.22995 -77.12276 39753 ft 427 kts 276°
2026-05-04 23:51 42.23548 -77.20254 39745 ft 427 kts 276°
2026-05-04 23:51 42.24096 -77.28230 39757 ft 427 kts 275°
2026-05-04 23:52 42.24633 -77.36140 39748 ft 426 kts 275°
2026-05-04 23:52 42.25169 -77.44109 39768 ft 426 kts 275°
2026-05-04 23:53 42.25766 -77.52054 39758 ft 425 kts 279°
2026-05-04 23:53 42.27054 -77.59846 39750 ft 425 kts 283°
2026-05-04 23:54 42.28486 -77.67595 39756 ft 425 kts 283°
2026-05-04 23:54 42.29891 -77.75293 39754 ft 425 kts 283°
2026-05-04 23:55 42.31288 -77.83050 39778 ft 425 kts 283°
2026-05-04 23:56 42.33366 -77.94696 39762 ft 425 kts 283°
2026-05-04 23:56 42.34719 -78.02319 39764 ft 425 kts 283°
2026-05-04 23:57 42.36084 -78.10039 39773 ft 425 kts 283°
2026-05-04 23:57 42.37453 -78.17817 39772 ft 425 kts 282°
2026-05-04 23:58 42.38818 -78.25606 39775 ft 425 kts 282°
2026-05-04 23:58 42.40178 -78.33393 39776 ft 425 kts 282°
2026-05-04 23:59 42.41532 -78.41186 39773 ft 425 kts 282°
2026-05-04 23:59 42.42872 -78.48928 39770 ft 425 kts 282°
2026-05-05 00:00 42.44215 -78.56727 39762 ft 425 kts 282°
2026-05-05 00:00 42.45554 -78.64525 39760 ft 426 kts 282°
2026-05-05 00:01 42.46884 -78.72340 39743 ft 426 kts 281°
2026-05-05 00:01 42.47468 -78.80303 39733 ft 425 kts 272°
2026-05-05 00:02 42.47626 -78.88313 39715 ft 425 kts 271°
2026-05-05 00:02 42.47800 -78.96267 39726 ft 425 kts 272°
2026-05-05 00:03 42.48022 -79.04135 39719 ft 425 kts 272°
2026-05-05 00:03 42.48269 -79.12135 39721 ft 425 kts 272°
2026-05-05 00:04 42.48516 -79.20140 39719 ft 425 kts 272°
2026-05-05 00:04 42.48754 -79.28083 39722 ft 425 kts 272°
2026-05-05 00:05 42.48988 -79.36084 39722 ft 425 kts 272°
2026-05-05 00:05 42.49215 -79.44084 39722 ft 425 kts 272°
2026-05-05 00:06 42.49437 -79.52077 39713 ft 424 kts 272°
2026-05-05 00:06 42.49653 -79.60055 39707 ft 424 kts 272°
2026-05-05 00:07 42.49862 -79.67992 39702 ft 424 kts 272°
2026-05-05 00:07 42.50067 -79.75983 39696 ft 424 kts 272°
2026-05-05 00:08 42.50266 -79.83969 39691 ft 424 kts 271°
2026-05-05 00:08 42.50460 -79.91964 39704 ft 424 kts 271°
2026-05-05 00:09 42.50647 -79.99902 39699 ft 424 kts 271°
2026-05-05 00:09 42.50827 -80.07769 39696 ft 425 kts 271°
2026-05-05 00:10 42.51003 -80.15693 39674 ft 411 kts 271°
2026-05-05 00:10 42.51087 -80.19524 39252 ft 406 kts 271°
2026-05-05 00:10 42.51168 -80.23345 38744 ft 404 kts 271°
2026-05-05 00:10 42.51248 -80.27152 38181 ft 403 kts 271°
2026-05-05 00:11 42.51326 -80.30933 37626 ft 400 kts 271°
2026-05-05 00:11 42.51401 -80.34632 37136 ft 395 kts 271°
2026-05-05 00:11 42.51475 -80.38331 36669 ft 391 kts 271°
2026-05-05 00:11 42.51547 -80.41997 36203 ft 387 kts 271°
2026-05-05 00:12 42.51618 -80.45617 35765 ft 383 kts 272°
2026-05-05 00:12 42.51686 -80.49207 35315 ft 379 kts 272°
2026-05-05 00:12 42.51754 -80.52764 34861 ft 376 kts 272°
2026-05-05 00:12 42.51820 -80.56289 34429 ft 373 kts 272°
2026-05-05 00:13 42.51883 -80.59785 33978 ft 370 kts 272°
2026-05-05 00:13 42.51941 -80.63259 33506 ft 367 kts 272°
2026-05-05 00:13 42.51983 -80.66700 33018 ft 364 kts 271°
2026-05-05 00:13 42.52018 -80.70111 32563 ft 360 kts 271°
2026-05-05 00:14 42.52049 -80.73440 32148 ft 356 kts 271°
2026-05-05 00:14 42.52081 -80.76779 31708 ft 353 kts 271°
2026-05-05 00:14 42.52112 -80.80085 31288 ft 349 kts 271°
2026-05-05 00:14 42.52142 -80.83364 30869 ft 346 kts 271°
2026-05-05 00:15 42.52172 -80.86615 30462 ft 344 kts 271°
2026-05-05 00:15 42.52201 -80.89865 30053 ft 346 kts 271°
2026-05-05 00:15 42.52230 -80.93171 29623 ft 355 kts 270°
2026-05-05 00:15 42.52259 -80.96542 29099 ft 358 kts 270°
2026-05-05 00:16 42.52286 -80.99905 28604 ft 355 kts 270°
2026-05-05 00:16 42.52311 -81.03068 28171 ft 351 kts 270°
2026-05-05 00:16 42.52336 -81.06356 27717 ft 347 kts 270°
2026-05-05 00:16 42.52360 -81.09608 27269 ft 344 kts 270°
2026-05-05 00:17 42.52383 -81.12832 26830 ft 340 kts 270°
2026-05-05 00:17 42.52405 -81.16024 26392 ft 337 kts 270°
2026-05-05 00:17 42.52425 -81.19192 25988 ft 335 kts 270°
2026-05-05 00:17 42.52445 -81.22331 25567 ft 332 kts 270°
2026-05-05 00:18 42.52464 -81.25450 25161 ft 329 kts 270°
2026-05-05 00:18 42.52482 -81.28542 24767 ft 327 kts 270°
2026-05-05 00:18 42.52499 -81.31614 24375 ft 325 kts 270°
2026-05-05 00:18 42.52515 -81.34664 23986 ft 323 kts 270°
2026-05-05 00:19 42.52510 -81.37649 23607 ft 320 kts 267°
2026-05-05 00:19 42.52348 -81.40660 23247 ft 320 kts 264°
2026-05-05 00:19 42.52111 -81.43655 22844 ft 320 kts 264°
2026-05-05 00:19 42.51862 -81.46650 22458 ft 320 kts 264°
2026-05-05 00:20 42.51617 -81.49642 22092 ft 320 kts 264°
2026-05-05 00:20 42.51379 -81.52636 21722 ft 319 kts 264°
2026-05-05 00:20 42.51147 -81.55624 21369 ft 319 kts 264°
2026-05-05 00:20 42.50918 -81.58609 21012 ft 319 kts 264°
2026-05-05 00:21 42.50691 -81.61595 20658 ft 318 kts 264°
2026-05-05 00:21 42.50464 -81.64574 20304 ft 317 kts 264°
2026-05-05 00:21 42.50241 -81.67508 19955 ft 317 kts 264°
2026-05-05 00:21 42.50015 -81.70470 19605 ft 315 kts 264°
2026-05-05 00:22 42.49790 -81.73408 19252 ft 311 kts 264°
2026-05-05 00:22 42.49567 -81.76307 18908 ft 308 kts 263°
2026-05-05 00:22 42.49346 -81.79173 18573 ft 305 kts 263°
2026-05-05 00:22 42.49125 -81.82019 18233 ft 303 kts 263°
2026-05-05 00:23 42.48904 -81.84857 17897 ft 302 kts 263°
2026-05-05 00:23 42.48683 -81.87677 17519 ft 301 kts 263°
2026-05-05 00:23 42.48462 -81.90485 17164 ft 299 kts 263°
2026-05-05 00:23 42.48243 -81.93274 16831 ft 297 kts 263°
2026-05-05 00:24 42.48027 -81.96007 16509 ft 294 kts 263°
2026-05-05 00:24 42.47810 -81.98762 16162 ft 294 kts 263°
2026-05-05 00:24 42.47598 -82.01427 15854 ft 293 kts 263°
2026-05-05 00:24 42.47380 -82.04163 15563 ft 291 kts 263°
2026-05-05 00:25 42.47164 -82.06880 15267 ft 289 kts 263°
2026-05-05 00:25 42.46948 -82.09576 14979 ft 287 kts 264°
2026-05-05 00:25 42.46733 -82.12262 14667 ft 286 kts 264°
2026-05-05 00:25 42.46518 -82.14926 14389 ft 284 kts 264°
2026-05-05 00:26 42.46304 -82.17577 14101 ft 283 kts 264°
2026-05-05 00:26 42.46094 -82.20181 13845 ft 281 kts 264°
2026-05-05 00:26 42.45882 -82.22793 13618 ft 279 kts 264°
2026-05-05 00:26 42.45670 -82.25404 13314 ft 279 kts 264°
2026-05-05 00:27 42.45457 -82.28018 12983 ft 279 kts 264°
2026-05-05 00:27 42.45243 -82.30627 12663 ft 278 kts 264°
2026-05-05 00:27 42.45026 -82.33217 12352 ft 276 kts 262°
2026-05-05 00:27 42.44740 -82.35783 12044 ft 275 kts 261°
2026-05-05 00:28 42.44424 -82.38331 11739 ft 274 kts 261°
2026-05-05 00:28 42.44108 -82.40856 11253 ft 278 kts 261°
2026-05-05 00:28 42.43790 -82.43426 10820 ft 278 kts 261°
2026-05-05 00:28 42.43472 -82.46009 10408 ft 278 kts 261°
2026-05-05 00:29 42.43161 -82.48557 10218 ft 270 kts 261°
2026-05-05 00:29 42.42860 -82.51027 10062 ft 261 kts 261°
2026-05-05 00:29 42.42569 -82.53414 9895 ft 254 kts 261°
2026-05-05 00:29 42.42283 -82.55759 9614 ft 251 kts 261°
2026-05-05 00:30 42.41999 -82.58085 9328 ft 249 kts 260°
2026-05-05 00:30 42.41718 -82.60384 9035 ft 247 kts 260°
2026-05-05 00:30 42.41438 -82.62663 8741 ft 244 kts 260°
2026-05-05 00:30 42.41165 -82.64886 8465 ft 242 kts 260°
2026-05-05 00:31 42.40891 -82.67116 8210 ft 239 kts 260°
2026-05-05 00:31 42.40619 -82.69326 7943 ft 237 kts 260°
2026-05-05 00:31 42.40348 -82.71519 7717 ft 235 kts 260°
2026-05-05 00:31 42.40079 -82.73694 7437 ft 233 kts 260°
2026-05-05 00:32 42.39812 -82.75850 7202 ft 231 kts 260°
2026-05-05 00:32 42.39815 -82.77974 6987 ft 225 kts 279°
2026-05-05 00:32 42.40363 -82.79974 6888 ft 234 kts 292°
2026-05-05 00:32 42.41164 -82.81945 6756 ft 242 kts 295°
2026-05-05 00:33 42.42000 -82.83909 6628 ft 245 kts 295°
2026-05-05 00:33 42.42847 -82.85911 6494 ft 245 kts 295°
2026-05-05 00:33 42.43674 -82.87885 6369 ft 238 kts 295°
2026-05-05 00:33 42.44472 -82.89804 6236 ft 230 kts 294°
2026-05-05 00:34 42.45241 -82.91664 6117 ft 222 kts 294°
2026-05-05 00:34 42.45979 -82.93450 6045 ft 212 kts 294°
2026-05-05 00:34 42.46688 -82.95166 5992 ft 206 kts 294°
2026-05-05 00:34 42.47384 -82.96850 5992 ft 204 kts 294°
2026-05-05 00:35 42.48078 -82.98532 5998 ft 206 kts 294°
2026-05-05 00:35 42.48701 -83.00177 5988 ft 200 kts 283°
2026-05-05 00:35 42.48904 -83.01997 6007 ft 201 kts 271°
2026-05-05 00:35 42.48973 -83.03903 5997 ft 203 kts 270°
2026-05-05 00:36 42.49034 -83.05805 5984 ft 201 kts 270°
2026-05-05 00:36 42.49098 -83.07694 5955 ft 200 kts 270°
2026-05-05 00:36 42.48939 -83.09515 5958 ft 195 kts 251°
2026-05-05 00:36 42.48318 -83.11200 5835 ft 204 kts 241°
2026-05-05 00:37 42.47565 -83.12838 5674 ft 205 kts 240°
2026-05-05 00:37 42.46768 -83.14416 5519 ft 201 kts 229°
2026-05-05 00:37 42.45686 -83.15557 5393 ft 197 kts 220°
2026-05-05 00:37 42.44552 -83.16560 5249 ft 193 kts 218°
2026-05-05 00:38 42.43427 -83.17459 5123 ft 179 kts 216°
2026-05-05 00:38 42.42380 -83.18257 5061 ft 166 kts 216°
2026-05-05 00:38 42.41394 -83.18997 4857 ft 158 kts 216°
2026-05-05 00:38 42.40475 -83.19682 4700 ft 145 kts 217°
2026-05-05 00:39 42.39630 -83.20310 4494 ft 130 kts 218°
2026-05-05 00:39 42.38891 -83.20858 4327 ft 114 kts 219°
2026-05-05 00:39 42.38207 -83.21370 4211 ft 112 kts 219°
2026-05-05 00:39 42.37542 -83.21867 4068 ft 109 kts 218°
2026-05-05 00:40 42.36879 -83.22361 3919 ft 108 kts 218°
2026-05-05 00:40 42.36221 -83.22850 3771 ft 107 kts 218°
2026-05-05 00:40 42.35570 -83.23334 3636 ft 107 kts 218°
2026-05-05 00:40 42.34917 -83.23820 3502 ft 107 kts 217°
2026-05-05 00:41 42.34262 -83.24306 3358 ft 107 kts 217°
2026-05-05 00:41 42.33608 -83.24791 3225 ft 107 kts 217°
2026-05-05 00:41 42.32957 -83.25275 3095 ft 107 kts 217°
2026-05-05 00:41 42.32316 -83.25749 2940 ft 105 kts 217°
2026-05-05 00:42 42.31673 -83.26226 2795 ft 104 kts 217°
2026-05-05 00:42 42.31048 -83.26690 2673 ft 105 kts 217°
2026-05-05 00:42 42.30402 -83.27170 2519 ft 106 kts 216°
2026-05-05 00:42 42.29757 -83.27648 2394 ft 110 kts 215°
2026-05-05 00:43 42.29074 -83.28153 2227 ft 111 kts 215°
2026-05-05 00:43 42.28407 -83.28646 2107 ft 108 kts 214°
2026-05-05 00:43 42.27744 -83.29139 1959 ft 109 kts 213°
2026-05-05 00:43 42.27088 -83.29623 1805 ft 107 kts 213°
2026-05-05 00:44 42.26433 -83.30109 1685 ft 110 kts 213°
2026-05-05 00:44 42.25744 -83.30622 1522 ft 118 kts 212°
2026-05-05 00:44 42.25040 -83.31138 1353 ft 115 kts 210°
2026-05-05 00:44 42.24367 -83.31636 1198 ft 112 kts 210°
2026-05-05 00:45 42.23658 -83.32168 1086 ft 121 kts 208°
2026-05-05 00:45 42.22927 -83.32702 939 ft 116 kts 210°
2026-05-05 00:45 42.22244 -83.33205 757 ft 109 kts 209°
2026-05-05 00:45 42.21577 -83.33698 651 ft 104 kts 209°
2026-05-05 00:46 42.21053 -83.34084 653 ft 64 kts 208°
2026-05-05 00:46 42.20768 -83.34294 652 ft 39 kts 209°
2026-05-05 00:46 42.20606 -83.34484 654 ft 21 kts 232°
2026-05-05 00:46 42.20531 -83.34648 653 ft 18 kts 238°
2026-05-05 00:47 42.20452 -83.34776 653 ft 18 kts 215°
2026-05-05 00:47 42.20343 -83.34861 654 ft 18 kts 208°
2026-05-05 00:47 42.20232 -83.34942 655 ft 18 kts 208°
2026-05-05 00:47 42.20179 -83.35085 652 ft 18 kts 267°
2026-05-05 00:48 42.20174 -83.35255 655 ft 18 kts 270°
2026-05-05 00:48 42.20174 -83.35425 655 ft 18 kts 269°
2026-05-05 00:48 42.20171 -83.35596 654 ft 18 kts 268°
2026-05-05 00:48 42.20167 -83.35766 655 ft 18 kts 268°
2026-05-05 00:49 42.20165 -83.35936 654 ft 18 kts 269°
2026-05-05 00:49 42.20161 -83.36106 651 ft 18 kts 269°
2026-05-05 00:49 42.20173 -83.36269 653 ft 17 kts 285°